Location: Finkenwalde
(53.3770°N, 14.6418°E)
Time: 10:07:51
(UTC+00:00)

COSMOS 2428 - Pass Details

Date: 05 February 2023
Orbit: 843 x 858 km, 70.9° (Epoch: 20 March)

Event Time Altitude Azimuth Distance (km) Brightness Sun altitude
Rises 19:47:44 0° 229° (SW) 3,395 6.2 -34.9°
Reaches altitude 10° 19:50:15 10° 235° (SW) 2,463 5.4 -35.3°
Enters shadow 19:53:12 30° 251° (WSW) 1,485 4.2 -35.7°
